Date,TemperatureHighF,TemperatureAvgF,TemperatureLowF,DewpointHighF,DewpointAvgF,DewpointLowF,HumidityHigh,HumidityAvg,HumidityLow,PressureMaxIn,PressureMinIn,WindSpeedMaxMPH,WindSpeedAvgMPH,GustSpeedMaxMPH,PrecipitationSumIn
2013-2-1,26,20,15,16,8,2,81,59,39,30.15,29.62,6,2,21,0.00
2013-2-2,26,16,4,13,5,-1,83,62,39,30.26,30.07,6,1,13,0.00
2013-2-3,26,17,8,12,9,5,87,72,44,30.08,29.81,4,0,10,0.00
2013-2-4,24,18,13,14,8,2,86,65,42,29.97,29.80,5,2,25,0.00
2013-2-5,29,20,12,16,8,4,75,61,42,30.04,29.93,4,1,9,0.00
2013-2-6,32,24,16,20,13,0,87,64,39,30.35,29.93,6,2,21,0.00
2013-2-7,26,18,6,7,3,-2,83,53,35,30.56,30.35,3,1,11,0.00
2013-2-8,26,22,18,19,14,5,85,71,45,30.45,29.78,8,3,30,0.00
2013-2-9,21,15,6,16,4,-7,87,65,38,30.35,29.83,5,1,24,0.00
2013-2-10,31,11,-9,10,-1,-14,81,63,23,30.55,30.36,3,0,7,0.00
2013-2-11,40,28,8,37,24,3,92,85,63,30.38,29.70,4,0,19,0.12
2013-2-12,36,33,30,28,25,20,79,70,64,29.93,29.72,7,3,24,0.01
2013-2-13,37,30,25,23,20,17,78,68,47,29.90,29.76,3,1,11,0.00
2013-2-14,40,27,13,21,18,9,88,71,42,30.00,29.75,3,0,7,0.01
2013-2-15,48,33,21,27,23,17,89,70,38,30.02,29.93,5,1,12,0.00
2013-2-16,33,28,23,26,17,5,88,66,45,30.03,29.82,2,0,10,0.01
2013-2-17,23,17,9,7,0,-4,59,48,31,29.90,29.63,6,2,23,0.00
2013-2-18,25,13,5,3,-3,-8,73,50,27,30.24,29.90,5,1,21,0.00
2013-2-19,41,28,10,31,18,2,91,69,37,30.25,29.64,4,0,14,0.04
2013-2-20,32,24,21,30,15,9,91,69,49,29.87,29.64,6,2,19,0.00
2013-2-21,23,19,16,12,9,5,74,64,51,30.39,29.83,7,2,26,0.00
2013-2-22,42,25,7,20,14,2,85,65,38,30.47,30.31,3,0,9,0.00
2013-2-23,34,32,29,29,25,20,88,78,62,30.32,29.92,3,1,11,0.00
2013-2-24,39,33,30,33,29,25,90,86,81,29.97,29.77,2,0,9,0.00
2013-2-25,37,30,24,26,24,20,86,76,60,30.28,29.97,2,0,8,0.00
2013-2-26,39,30,17,26,22,14,89,73,57,30.36,30.12,7,1,16,0.00
2013-2-27,39,34,30,34,30,24,90,85,71,30.13,29.61,9,3,30,0.00
2013-2-28,42,34,31,36,31,28,91,88,78,29.65,29.57,2,0,6,0.00